www.pogodaiklimat.ru

Погода и климат >> Архив погоды >> Россия >> Ненецкий АО >> Имени Федорова


ПОГОДА в Имени Федорова

  • Прогноз погоды в Имени Федорова
  • Монитор погоды в Имени Федорова

АРХИВ ПОГОДЫ в Имени Федорова

Время (UTC), дата Ветер
(напр.,м/с)
 
Видим.   Явления Облачность Т
(С)
Тd
(С)
f
(%)
Тe
(С)
Тes
(С)
Комфортность P
(гПа)
Po
(гПа)
Тmin
(С)
Tmax
(С)
R
(мм)
R24
(мм)
S
(см)
00 9.07 СВ 4 10 км 10/0
[Ac und]
+2.7 +2.4 98 -2 -2 1010.1 1008.8
03 9.07 В 4 10 км 10/0
[Ac und]
+3.3 +2.9 97 -2 -1 1009.4 1008.1 +2.6
06 9.07 В 5 10 км 10/10 600 м
[Sc]
+3.9 +2.8 93 -1 -1 1009.1 1007.8
09 9.07 В 5 10 км 10/10 600 м
[Sc]
+3.8 +3.1 95 -1 -1 1009.3 1008.0
12 9.07 В 6 4000 м слаб. дождь 10/0 300 м
[As op]
+4.0 +3.6 97 -2 -1 1009.5 1008.2
15 9.07 В 7 4000 м слаб. дождь 10/0 300 м
[As op]
+3.7 +3.5 99 -3 -2 1009.6 1008.3 +4.1 0.5
18 9.07 В 6
{10}
2000 м дождь 10/0 300 м
[As op]
+3.2 +2.8 97 -3 -3 1009.7 1008.4
21 9.07 В 8-10
{10}
4000 м слаб. дождь 10/0 300 м
[As op]
+3.1 +2.5 96 -4 -4 1009.9 1008.5
00 10.07 В 7
{11}
4000 м слаб. дождь 10/0 300 м
[As op]
+2.8 +2.3 97 -4 -4 1009.8 1008.5
03 10.07 В 7 4000 м дымка {дождь} 10/10 300 м
[Sc]
+2.9 +2.6 98 -4 -4 1009.4 1008.0 +2.7 1
06 10.07 СВ 8 1000 м дымка 10/10 300 м
[St]
+3.1 +3.1 100 -4 -4 1009.3 1008.0
09 10.07 В 9-11
{11}
4000 м дымка 10/10 300 м
[St]
+3.7 +3.7 100 -3 -3 1009.5 1008.1
12 10.07 В 9-11
{11}
4000 м дымка 10/10 300 м
[St]
+3.7 +3.7 100 -3 -3 1009.5 1008.2
15 10.07 В 9-11
{11}
4000 м дымка 10/10 300 м
[St]
+3.9 +3.8 99 -3 -3 1009.3 1008.0 +3.9
18 10.07 В 10-11
{11}
10 км 10/10 600 м
[Sc]
+3.7 +3.5 99 -4 -4 1009.2 1007.9
21 10.07 В 11-13
{14}
10 км 10/10 600 м
[Sc]
+3.6 +3.2 97 -4 -4 1008.2 1006.9
00 11.07 В 12-14
{14}
10 км 10/0
[Ac und]
+3.9 +3.2 95 -4 -4 1006.9 1005.6
03 11.07 В 14-17
{17}
10 км 10/0
[Ac und]
+4.2 +3.5 95 -4 -4 1005.3 1004.0 +3.5
06 11.07 В 15-18
{19}
10 км 10/0
[Ac und]
+4.3 +3.3 93 -4 -4 1003.8 1002.5
09 11.07 В 14-18
{19}
10 км 10/0
[Ac und]
+4.5 +3.6 94 -3 -3 1003.8 1002.5
12 11.07 В 13-16
{18}
4000 м слаб. дождь 10/0 300 м
[As op]
+4.3 +3.7 96 -3 -3 1003.9 1002.6
15 11.07 В 14-16
{17}
4000 м слаб. дождь 10/0 300 м
[As op]
+4.4 +3.8 96 -3 -3 1003.5 1002.2 +4.6 0.4
18 11.07 В 13-15
{16}
4000 м слаб. дождь 10/0 300 м
[As op]
+4.9 +4.3 96 -3 -3 1003.0 1001.7
21 11.07 В 12-14
{16}
10 км {дождь} 10/10 600 м
[Sc]
+4.1 +3.6 97 -3 -3 1003.6 1002.3
00 12.07 В 12-15
{16}
4000 м слаб. дождь 10/0 300 м
[As op]
+3.7 +3.5 99 -4 -4 1003.6 1002.3
03 12.07 В 12-15
{17}
4000 м слаб. дождь 10/0 300 м
[As op]
+3.5 +3.5 100 -4 -4 1004.2 1002.9 +3.5 0.8
06 12.07 В 11-13
{16}
2000 м дождь 10/0 300 м
[As op]
+3.4 +3.3 99 -4 -4 1006.3 1004.9 +3.4
09 12.07 В 9-11
{14}
4000 м слаб. дождь 10/0 300 м
[As op]
+3.5 +3.4 99 -3 -3 1008.4 1007.1
12 12.07 В 10-11
{11}
4000 м дымка {дождь} 10/0
[As trans]
+3.5 +3.4 99 -4 -4 1010.0 1008.7
15 12.07 В 9-11
{11}
4000 м дымка 10/0
[As trans]
+3.5 +3.4 99 -3 -3 1011.8 1010.5 +3.6 1
18 12.07 В 8
{11}
4000 м слаб. дождь 10/0 300 м
[As op]
+3.3 +3.3 100 -3 -3 1013.1 1011.7
21 12.07 В 5 4000 м слаб. дождь 10/0 300 м
[As op]
+3.2 +3.2 100 -2 -2 1014.4 1013.1
00 13.07 В 5 4000 м слаб. дождь 10/0 300 м
[As op]
+3.3 +3.3 100 -2 -2 1015.1 1013.8
03 13.07 ЮВ 4 4000 м дымка {дождь} 10/0
[As trans]
+3.4 +3.4 100 -2 -0 1016.1 1014.8 +3.2 0.9
06 13.07 ЮВ 4 200 м туман {дождь} ?/? +3.7 +3.7 100 -1 -1 1016.9 1015.6
09 13.07 ЮВ 5 10 км {туман} 8/8 600 м
[Sc]
+5.0 +5.0 100 0 +1 1017.3 1016.0
12 13.07 ЮВ 6 50 м туман ?/? +4.1 +4.1 100 -2 -2 1016.9 1015.5
15 13.07 ЮВ 6 20 км {туман} 3/0
[Ci fib]
+4.1 +4.1 100 -2 -1 1016.2 1014.9 +5.0
18 13.07 ЮВ 6 10 км {туман} 6/0
[Ac trans]
+3.9 +3.9 100 -2 -2 1015.0 1013.7
21 13.07 ЮВ 6 10 км 6/0
[Ac trans Ci fib]
+3.7 +3.7 100 -2 -2 1012.7 1011.3
00 14.07 ЮВ 7 10 км 8/0
[Ac trans]
+4.2 +4.2 100 -2 -2 1011.0 1009.7
03 14.07 ЮВ 4 10 км 10/0
[Ac und]
+3.6 +3.6 100 -1 -0 1009.9 1008.6 +3.3
06 14.07 В 9-10
{10}
4000 м слаб. дождь 10/0
[As trans]
+4.8 +4.8 100 -2 -1 1008.0 1006.7
09 14.07 СВ 9-10
{11}
1000 м дымка {дождь} 10/0
[Ac und]
+4.9 +4.9 100 -2 -1 1008.0 1006.7
12 14.07 СВ 9-11
{11}
10 км {дождь} 8/0
[Ac trans]
+5.3 +5.3 100 -1 -1 1008.6 1007.3
15 14.07 С 7
{11}
4000 м дымка 10/0
[Ac und]
+5.0 +5.0 100 -1 -1 1010.9 1009.6 +5.5 0.3
18 14.07 С 6 50 м туман ?/? +3.9 +3.9 100 -2 -2 1012.3 1011.0
21 14.07 СВ 5 1000 м дымка {туман} 10/10 300 м
[St]
+3.1 +3.1 100 -2 -2 1012.1 1010.7
00 15.07 СВ 5 500 м туман ?/? +3.3 +3.3 100 -2 -2 1012.5 1011.2
03 15.07 СВ 5 4000 м дымка {туман} 10/10 300 м
[St]
+3.1 +3.1 100 -2 -2 1012.8 1011.5 +2.9
06 15.07 С 5 4000 м дымка {туман} 6/0
[Ac trans]
+4.1 +4.1 100 -1 +2 1013.6 1012.3
09 15.07 С 4 10 км 10/0
[As trans]
+5.6 +5.2 97 +1 +4 1015.5 1014.1
12 15.07 С 3 500 м туман ?/? +3.9 +3.9 100 -0 -0 1016.9 1015.6
15 15.07 СВ 4 500 м туман ?/? +3.3 +3.3 100 -2 -2 1017.7 1016.4 +5.6
18 15.07 СВ 2 500 м туман ?/? +2.8 +2.8 100 -1 -1 1018.9 1017.6
21 15.07 В 2 200 м туман ?/? +1.9 +1.9 100 -2 -2 1019.5 1018.1

 

Местоположение метеостанции Имени Федорова (Ненецкий АО, Россия): широта 70.45 долгота 59.08 высота над уровнем моря 12 м.

В архиве по умолчанию представлена погода в Имени Федорова за последнюю неделю. Архивные данные за месяц целиком и за предыдущие месяцы, начиная с января 2011 года, Вы можете получить, выбрав интересующий диапазон дат из раскрывающегося списка и нажав кнопку "Ввод!".


*Определитесь, кто Вы:
робот инопланетянин человек

Внимание! Время в таблицах - всемирное. Для получения местного времени необходимо прибавить поправку, которая равна 3 ч.

Смотрите также архив погоды в соседних городах и на ближайших метеорологических станциях:

Погода на Мысе Белый Нос (Ненецкий АО, Россия) (104 км)
Погода в Амдерме (Ненецкий АО, Россия) (124 км)
Погода в Варандее (Ненецкий АО, Россия) (186 км)
Погода на Мысе Константиновском (Ненецкий АО, Россия) (253 км)
Погода в Усть-Каре (Ненецкий АО, Россия) (261 км)
Погода в Ходоварихе (Ненецкий АО, Россия) (266 км)
Погода в Марресале (Ямало-Ненецкий АО, Россия) (304 км)
Погода в Малых Кармакулах (Архангельская область, Россия) (310 км)
Погода в Хорей-Вере (Ненецкий АО, Россия) (339 км)
Погода в Сенгейском Шаре (Ненецкий АО, Россия) (376 км)

Пояснения к столбцам:

Ветер - указаны скорость ветра в м/с - средняя за 10 мин, порывы в срок и между сроками (в фигурных скобках) и направление, откуда дует ветер: С - северный, СВ - северо-восточный, В - восточный, ЮВ - юго-восточный, Ю - южный, ЮЗ - юго-западный, З - западный, СЗ - северо-западный.
Видимость - горизонтальная дальность видимости в метрах или километрах. При видимости от 1 до 10 км при отсутствии осадков обычно наблюдается дымка, при ухудшении видимости до 1 км и менее - туман. В сухую погоду видимость может ухудшаться дымом, пылью или мглою.
Явления - указаны атмосферные явления, наблюдавшиеся в срок или в последний час перед сроком; фигурными скобками обозначены явления, наблюдавшиеся между сроками (за 1-3 часа до срока); квадратными скобками обозначены град или гололедные отложения с указанием их диаметра в мм.
Облачность - указаны через наклонную черту общая и нижняя облачность в баллах и высота нижней границы облаков в метрах; квадратными скобками обозначены формы облаков: Ci - перистые, Cs - перисто-слоистые, Cc - перисто-кучевые, Ac - высококучевые, As - высокослоистые, Sc - слоисто-кучевые, Ns - слоисто-дождевые, Cu - кучевые, Cb - кучево-дождевые. Подробнее классификацию облаков см. в Атласе облаков (PDF).
T - Температура воздуха - температура, измеренная на высоте 2 м над землей.
Td - Температура точки росы - температура, при понижении до которой содержащийся в воздухе водяной пар достигнет насыщения.
f - Относительная влажность воздуха - влажноcть воздуха, измеренная на высоте 2 м над землей.
Te - Эффективная температура - температура, которую ощущает одетый по сезону человек в тени. Характеристика душности погоды. При расчете учитывается влияние влажности воздуха и скорости ветра на теплоощущения человека.
Tes - Эффективная температура на солнце - температура, которую ощущает человек, с поправкой на солнечный нагрев. Характеристика знойности погоды. Зависит от высоты солнца над горизонтом, облачности и скорости ветра. Ночью, в пасмурную погоду, а также при ветре 12 м/с и более поправка равна нулю.
P - Атмосферное давление - приведенное к уровню моря атмосферное давление.
Po - Атмосферное давление - измеренное на уровне метеостанции атмосферное давление.
Tmin - Минимальная температура - минимум температуры воздуха на высоте 2 м над землей.
Tmax - Максимальная температура - максимум температуры воздуха на высоте 2 м над землей.
R - Количество осадков - Количество выпавших осадков за период времени, мм. При наведении курсора мыши на число - период времени, за который выпало указанное количество осадков.
R24 - Количество осадков - Количество выпавших осадков за 24 часа, мм.
S - Снежный покров - Высота снежного покрова, см. При наведении курсора мыши на число - состояние снежного покрова и степень покрытия местности в баллах.